Date String (YYYY-MM-DD hh:mm:ss) UTC,Instrument flags,absolute air pressure of the measurement (hPa),sample flow rate (lpm),inlet stack bypass flow (lpm),air temperature of the measurement (°C),ambient temperature measured by the external sensor (°C),aerosol sample conditioner tube jacket temperature (°C),OPC LED temperature (°C),internal box temperature (°C),relative humidity of the measurement (%),span deviation,mass concentration of particles derived from Lorenz-Mie calculation of OPC scattering (μg/m³),mass concentration of particles derived from Lorenz-Mie calculation of OPC scattering (μg/m³),mass concentration of particles derived from Lorenz-Mie calculation of OPC scattering (μg/m³)
DateTimeUTC,F1_M11,P_M11,Q1_M11,Q2_M11,T1_M11,T2_M11,T3_M11,T4_M11,T5_M11,U1_M11,ZSPAN_M11,X2_M11,X0_M11,X1_M11
2024-03-09 23:00:00,SystemResetWarning,0829.1,5.00,000.00,021.8,021.1,000.0,030.2,023.6,08.0,0000.0,0004.46,0010.12,0003.98
2024-03-09 23:01:00,SystemResetWarning,0829.1,5.00,000.00,021.8,021.1,000.0,030.2,023.6,07.9,0000.0,0004.39,0009.95,0003.92
2024-03-09 23:02:00,SystemResetWarning,0829.1,5.00,000.00,021.8,021.1,000.0,030.2,023.6,08.0,0000.0,0004.35,0009.74,0003.86
2024-03-09 23:03:00,SystemResetWarning,0829.1,5.00,000.00,021.8,021.1,000.0,030.2,023.6,08.0,0000.0,0004.31,0010.40,0003.81
2024-03-09 23:04:00,SystemResetWarning,0829.1,5.00,000.00,021.8,021.2,000.0,030.2,023.6,07.9,0000.0,0004.27,0010.39,0003.76
2024-03-09 23:05:00,SystemResetWarning,0829.1,5.00,000.00,021.8,021.2,000.0,030.2,023.6,07.8,0000.0,0004.24,0010.31,0003.72
2024-03-09 23:06:00,SystemResetWarning,0829.1,5.00,000.00,021.8,021.2,000.0,030.2,023.6,07.8,0000.0,0004.19,0009.99,0003.69
2024-03-09 23:07:00,SystemResetWarning,0829.1,5.01,000.00,021.9,021.2,000.0,030.2,023.6,07.7,0000.0,0004.15,0009.65,0003.69
2024-03-09 23:08:00,SystemResetWarning,0829.1,5.00,000.00,021.9,021.2,000.0,030.3,023.6,07.7,0000.0,0004.12,0009.68,0003.67
2024-03-09 23:09:00,SystemResetWarning,0829.1,5.00,000.00,021.9,021.2,000.0,030.3,023.6,07.7,0000.0,0004.10,0010.07,0003.68
2024-03-09 23:10:00,SystemResetWarning,0829.1,5.00,000.00,021.9,021.1,000.0,030.3,023.6,07.7,0000.0,0004.09,0010.01,0003.69
2024-03-09 23:11:00,SystemResetWarning,0829.1,5.00,000.00,021.9,021.1,000.0,030.3,023.6,07.6,0000.0,0004.14,0009.39,0003.72
2024-03-09 23:12:00,SystemResetWarning,0829.1,5.00,000.00,021.9,021.1,000.0,030.3,023.6,07.9,0000.0,0004.17,0009.46,0003.75
2024-03-09 23:13:00,SystemResetWarning,0829.0,5.00,000.00,021.9,021.1,000.0,030.3,023.6,08.1,0000.0,0004.18,0009.26,0003.77
2024-03-09 23:14:00,SystemResetWarning,0829.0,5.00,000.00,021.9,021.1,000.0,030.3,023.6,07.9,0000.0,0004.17,0008.53,0003.80
2024-03-09 23:15:00,SystemResetWarning,0829.0,5.00,000.00,021.9,021.1,000.0,030.3,023.6,07.5,0000.0,0004.18,0008.49,0003.84
2024-03-09 23:16:00,SystemResetWarning,0829.0,5.00,000.00,021.9,021.1,000.0,030.3,023.6,07.6,0000.0,0004.20,0008.93,0003.86
2024-03-09 23:17:00,SystemResetWarning,0829.1,4.99,000.00,021.8,021.1,000.0,030.3,023.6,07.8,0000.0,0004.23,0009.35,0003.89
2024-03-09 23:18:00,SystemResetWarning,0829.0,5.00,000.00,021.9,021.1,000.0,030.3,023.6,07.5,0000.0,0004.24,0009.83,0003.92
2024-03-09 23:19:00,SystemResetWarning,0829.0,5.00,000.00,021.8,021.1,000.0,030.3,023.6,07.4,0000.0,0004.26,0009.68,0003.93
2024-03-09 23:20:00,SystemResetWarning,0829.0,5.00,000.00,021.8,021.1,000.0,030.3,023.6,07.6,0000.0,0004.26,0009.09,0003.93
2024-03-09 23:21:00,SystemResetWarning,0829.0,5.00,000.00,021.8,021.0,000.0,030.3,023.6,07.5,0000.0,0004.24,0009.59,0003.91
2024-03-09 23:22:00,SystemResetWarning,0829.0,5.00,000.00,021.8,021.0,000.0,030.3,023.6,07.6,0000.0,0004.19,0009.60,0003.89
2024-03-09 23:23:00,SystemResetWarning,0829.0,5.00,000.00,021.8,021.0,000.0,030.3,023.6,07.7,0000.0,0004.13,0009.43,0003.85
2024-03-09 23:24:00,SystemResetWarning,0829.0,5.00,000.00,021.8,021.0,000.0,030.3,023.6,07.8,0000.0,0004.13,0009.43,0003.82
2024-03-09 23:25:00,SystemResetWarning,0829.0,5.00,000.00,021.8,021.0,000.0,030.3,023.6,07.9,0000.0,0004.12,0009.42,0003.81
2024-03-09 23:26:00,SystemResetWarning,0829.0,5.00,000.00,021.8,021.0,000.0,030.3,023.6,08.2,0000.0,0004.08,0009.36,0003.77
2024-03-09 23:27:00,SystemResetWarning,0829.0,5.00,000.00,021.8,021.0,000.0,030.3,023.6,07.8,0000.0,0004.05,0009.14,0003.73
2024-03-09 23:28:00,SystemResetWarning,0829.0,5.00,000.00,021.8,021.0,000.0,030.3,023.6,07.6,0000.0,0004.03,0008.57,0003.69
2024-03-09 23:29:00,SystemResetWarning,0829.0,5.00,000.00,021.8,021.0,000.0,030.3,023.6,07.7,0000.0,0004.02,0008.31,0003.65
2024-03-09 23:30:00,SystemResetWarning,0829.0,4.99,000.00,021.8,021.0,000.0,030.3,023.6,07.8,0000.0,0003.98,0008.07,0003.60
2024-03-09 23:31:00,SystemResetWarning,0829.0,5.00,000.00,021.8,021.0,000.0,030.3,023.6,07.7,0000.0,0003.93,0008.24,0003.57
2024-03-09 23:32:00,SystemResetWarning,0828.9,5.00,000.00,021.8,021.0,000.0,030.3,023.6,07.8,0000.0,0003.93,0007.96,0003.55
2024-03-09 23:33:00,SystemResetWarning,0828.9,5.00,000.00,021.8,021.0,000.0,030.3,023.6,07.8,0000.0,0003.97,0007.90,0003.54
2024-03-09 23:34:00,SystemResetWarning,0829.0,5.00,000.00,021.8,021.0,000.0,030.3,023.6,07.8,0000.0,0003.99,0007.95,0003.54
2024-03-09 23:35:00,SystemResetWarning,0828.9,5.00,000.00,021.8,021.0,000.0,030.3,023.6,08.1,0000.0,0003.99,0007.97,0003.53
2024-03-09 23:36:00,SystemResetWarning,0829.0,5.00,000.00,021.8,021.0,000.0,030.3,023.5,08.0,0000.0,0003.99,0007.98,0003.52
2024-03-09 23:37:00,SystemResetWarning,0829.0,5.00,000.00,021.8,021.0,000.0,030.3,023.5,07.7,0000.0,0004.03,0008.11,0003.52
2024-03-09 23:38:00,SystemResetWarning,0829.0,5.00,000.00,021.8,021.0,000.0,030.3,023.5,07.6,0000.0,0004.07,0008.25,0003.52
2024-03-09 23:39:00,SystemResetWarning,0829.0,5.00,000.00,021.8,021.0,000.0,030.3,023.5,07.6,0000.0,0004.05,0008.30,0003.52
2024-03-09 23:40:00,SystemResetWarning,0829.0,5.00,000.00,021.8,021.0,000.0,030.3,023.5,07.7,0000.0,0004.02,0008.22,0003.51
2024-03-09 23:41:00,SystemResetWarning,0829.0,5.00,000.00,021.8,021.0,000.0,030.3,023.5,07.6,0000.0,0004.01,0007.91,0003.51
2024-03-09 23:42:00,SystemResetWarning,0829.0,5.00,000.00,021.8,021.0,000.0,030.3,023.5,07.8,0000.0,0004.01,0008.29,0003.50
2024-03-09 23:43:00,SystemResetWarning,0829.0,5.00,000.00,021.8,021.0,000.0,030.3,023.5,07.6,0000.0,0004.01,0008.24,0003.49
2024-03-09 23:44:00,SystemResetWarning,0828.9,5.00,000.00,021.8,021.0,000.0,030.3,023.5,07.8,0000.0,0003.98,0008.25,0003.48
2024-03-09 23:45:00,SystemResetWarning,0828.9,5.01,000.00,021.8,021.0,000.0,030.3,023.5,08.1,0000.0,0003.97,0008.25,0003.47
2024-03-09 23:46:00,SystemResetWarning,0828.9,5.00,000.00,021.8,021.0,000.0,030.3,023.5,08.2,0000.0,0003.94,0008.15,0003.47
2024-03-09 23:47:00,SystemResetWarning,0828.9,5.01,000.00,021.8,021.0,000.0,030.3,023.5,07.9,0000.0,0003.93,0008.14,0003.48
2024-03-09 23:48:00,SystemResetWarning,0828.9,4.99,000.00,021.8,021.0,000.0,030.3,023.5,07.7,0000.0,0003.93,0008.29,0003.48
2024-03-09 23:49:00,SystemResetWarning,0828.9,5.00,000.00,021.8,021.0,000.0,030.3,023.5,07.7,0000.0,0003.93,0008.22,0003.48
2024-03-09 23:50:00,SystemResetWarning,0828.9,5.01,000.00,021.8,021.0,000.0,030.3,023.5,07.5,0000.0,0003.97,0008.19,0003.49
2024-03-09 23:51:00,SystemResetWarning,0828.9,5.00,000.00,021.8,021.0,000.0,030.3,023.5,07.7,0000.0,0003.98,0008.20,0003.49
2024-03-09 23:52:00,SystemResetWarning,0829.0,5.01,000.00,021.8,021.0,000.0,030.3,023.5,07.6,0000.0,0003.99,0008.48,0003.49
2024-03-09 23:53:00,SystemResetWarning,0828.9,5.00,000.00,021.8,021.0,000.0,030.3,023.5,07.5,0000.0,0003.98,0007.91,0003.50
2024-03-09 23:54:00,SystemResetWarning,0828.9,4.99,000.00,021.8,021.0,000.0,030.3,023.5,07.7,0000.0,0003.98,0007.75,0003.49
2024-03-09 23:55:00,SystemResetWarning,0829.0,5.00,000.00,021.8,021.0,000.0,030.3,023.5,07.7,0000.0,0004.00,0007.82,0003.49
2024-03-09 23:56:00,SystemResetWarning,0828.9,4.99,000.00,021.8,021.0,000.0,030.3,023.5,07.8,0000.0,0003.99,0008.35,0003.48
2024-03-09 23:57:00,SystemResetWarning,0828.9,5.00,000.00,021.8,021.0,000.0,030.3,023.5,08.0,0000.0,0004.01,0008.99,0003.48
2024-03-09 23:58:00,SystemResetWarning,0828.9,5.01,000.00,021.8,021.0,000.0,030.3,023.5,07.9,0000.0,0004.00,0009.18,0003.48
2024-03-09 23:59:00,SystemResetWarning,0828.9,5.01,000.00,021.8,021.0,000.0,030.3,023.5,07.9,0000.0,0004.01,0009.02,0003.48
